Probability
0 0 1 2 1 0 0 0 0 0 0 1 4 8 8 6 4 4 4 6 9 9 9 8 6 5 5 5 6 8 9 10 10 12 14 14 13 12 11 10 10 10 10 10
0 0 1 2 2 1 1 1 1 0 1 2 4 7 8 5 4 4 5 7 9 10 11 10 8 8 7 7 8 10 11 11 12 14 16 16 16 14 13 12 12 11 10 10
0 0 1 2 2 2 2 2 2 1 1 3 5 7 7 5 4 6 6 7 9 11 12 11 9 9 11 11 11 13 13 14 15 18 19 19 18 17 15 14 13 12 11 10
0 0 1 1 1 1 2 2 2 2 3 4 7 8 8 6 5 5 6 8 9 10 10 10 9 10 12 13 14 15 17 18 20 22 22 21 20 19 16 14 13 13 12 11
0 0 0 0 0 0 1 1 2 3 4 5 8 9 8 7 4 3 4 5 7 9 9 9 11 13 14 16 17 18 19 21 23 24 24 22 20 19 17 15 13 13 13 12
0 0 0 0 0 0 0 0 2 3 5 7 8 6 6 7 6 2 2 2 5 8 9 9 13 17 19 20 20 20 20 22 24 25 23 20 18 18 17 15 14 13 12 12
0 0 0 0 1 1 1 0 2 4 6 6 5 3 4 6 7 4 3 4 7 10 10 11 15 20 22 22 21 21 21 22 24 23 21 18 16 15 14 14 13 12 11 11
0 0 0 0 1 2 1 1 2 4 5 5 3 3 5 7 9 8 7 8 10 12 12 12 15 19 21 21 20 22 23 23 23 22 20 17 14 12 10 10 10 10 8 8
0 0 0 0 1 1 0 1 2 4 5 4 4 4 7 9 10 10 9 10 11 12 12 12 14 16 18 18 20 23 25 24 22 20 18 16 13 10 8 8 9 8 6 5
1 0 0 0 0 0 0 0 2 5 6 5 4 6 9 10 10 9 9 10 11 11 12 14 15 16 16 18 21 23 24 22 20 17 16 15 13 10 8 9 9 8 5 4
1 0 0 0 0 0 0 1 3 5 6 5 5 6 9 10 9 9 9 10 11 11 12 14 16 16 18 21 23 23 21 19 17 16 16 15 13 9 7 8 8 6 4 3
1 0 0 0 0 0 0 1 4 6 6 5 4 6 8 9 9 9 9 10 10 11 11 12 13 14 16 20 22 22 20 18 17 16 16 16 14 10 6 4 3 2 2 2
0 0 0 0 0 0 0 2 5 6 5 5 4 5 7 9 10 10 9 10 10 9 8 7 7 8 12 17 20 20 20 19 18 17 16 15 14 14 11 7 3 1 1 1
0 0 0 0 0 0 1 3 5 6 5 5 6 6 7 10 12 11 10 10 10 9 7 6 5 5 9 14 17 18 20 20 19 16 15 14 15 16 15 12 8 5 2 1
0 0 0 0 0 0 1 3 4 4 5 6 8 9 10 10 11 11 10 10 11 10 9 8 6 5 7 11 14 16 17 17 16 14 11 11 12 12 12 11 9 7 5 4
0 0 0 0 0 0 1 2 3 3 4 6 8 9 9 7 7 9 10 10 10 10 10 9 7 5 6 9 12 14 14 13 11 9 8 7 6 6 6 7 7 7 6 6
0 0 0 0 0 0 1 2 3 3 3 4 6 7 6 4 3 5 7 8 8 8 7 7 5 3 4 8 10 11 11 9 7 6 6 5 4 4 4 4 5 5 5 6
0 0 0 0 0 0 0 2 3 3 3 3 3 5 5 3 1 2 4 5 4 4 3 3 3 3 4 7 8 9 9 7 7 7 7 6 6 6 6 4 3 3 3 4
0 0 0 0 0 0 1 2 3 3 3 3 3 4 4 2 1 1 2 2 1 1 1 1 2 2 3 5 7 8 8 6 6 7 6 6 7 7 7 6 3 2 2 1
0 0 0 0 0 0 1 2 3 3 3 3 3 3 3 1 0 1 1 1 0 0 0 0 1 1 1 3 4 5 6 5 6 7 6 6 8 8 7 6 5 4 2 1
0 0 0 0 0 0 1 2 3 3 3 3 3 3 2 1 0 0 0 0 0 0 0 0 0 0 0 1 2 3 5 6 8 8 8 7 8 7 6 5 4 3 2 2
0 0 0 0 0 0 1 2 3 3 3 3 3 3 2 1 0 0 0 0 0 0 0 0 0 0 0 0 1 3 4 6 8 9 8 7 6 5 3 2 1 1 1 1
0 0 0 0 0 0 1 2 3 3 3 3 3 2 1 0 0 0 0 0 0 0 0 0 0 0 0 0 1 2 4 5 6 6 5 5 4 3 3 1 0 0 0 0
0 0 0 0 0 1 2 3 3 3 3 3 2 1 0 0 0 0 0 0 0 0 0 0 0 0 0 0 1 2 2 2 3 4 3 3 3 3 3 2 1 0 0 0
0 0 0 0 1 2 3 3 3 3 3 2 1 0 0 0 0 0 0 0 0 0 0 0 0 0 0 0 0 1 1 1 2 3 3 3 3 3 3 3 2 1 1 0
0 0 0 0 1 2 3 3 3 3 2 1 0 0 0 0 0 0 0 0 0 0 0 0 0 0 0 0 0 0 0 0 1 3 3 3 3 3 3 3 3 3 2 1
0 0 0 0 1 2 3 3 3 3 2 1 1 0 0 0 0 0 0 0 0 0 0 0 0 0 0 0 0 0 0 0 1 2 3 3 3 3 3 3 3 3 3 3
Wind_Speed
4 4 2 2 3 4 4 7 8 7 7 7 5 5 3 2 3 4 5 5 6 6 5 5 6 6 6 5 5 6 6 6 6 5 4 3 3 3 2 2 3 2 2 2
2 2 1 1 2 3 3 3 4 2 5 5 2 1 1 1 3 4 4 5 6 6 6 6 6 6 6 6 6 6 6 6 5 4 4 4 4 3 3 3 3 2 3 3
3 3 1 3 4 4 3 2 4 5 7 2 0 1 3 3 3 4 4 4 5 5 6 6 6 7 7 6 5 6 5 5 4 4 4 4 4 4 4 4 3 3 3 3
2 1 5 6 1 3 3 1 2 3 3 3 3 3 2 2 3 3 3 3 4 4 5 5 5 5 5 5 5 6 5 4 4 5 5 4 4 4 4 3 3 3 3 4
3 3 4 4 1 1 2 2 2 1 1 1 0 2 2 2 1 3 4 4 4 4 4 4 4 5 6 6 5 5 5 5 5 5 5 4 4 4 3 3 3 3 3 4
4 4 6 6 3 2 3 2 2 0 1 1 2 2 4 3 2 1 1 1 2 2 2 2 3 4 6 6 6 6 6 6 5 5 5 5 4 3 2 2 3 3 3 3
3 3 5 5 5 1 4 6 3 1 2 2 3 5 4 2 1 1 0 1 0 1 2 3 3 5 5 5 6 6 4 4 4 4 4 4 3 2 2 2 2 3 3 3
3 3 6 4 2 2 4 3 1 1 1 1 2 1 1 1 1 1 1 1 1 2 1 2 4 5 5 5 4 3 3 3 4 3 3 3 3 3 3 3 2 2 3 3
5 5 4 3 2 3 2 1 2 1 2 1 1 1 1 1 1 1 1 0 1 2 1 0 2 4 4 4 3 3 3 3 2 2 2 3 4 4 3 3 3 2 2 3
1 4 4 4 3 3 2 2 3 2 2 1 1 1 1 0 1 2 1 0 1 2 1 0 1 2 3 2 4 5 4 4 3 3 3 2 2 3 3 3 3 3 3 4
2 4 4 4 5 5 5 4 3 3 1 1 2 2 1 0 1 1 1 1 0 1 1 1 1 1 1 2 3 3 4 3 3 3 3 3 3 3 4 4 4 4 4 4
5 5 3 5 6 5 4 5 4 3 3 1 2 2 1 1 1 1 1 0 1 1 1 1 0 0 1 2 3 3 2 2 2 2 2 2 2 2 3 4 6 8 8 6
5 4 4 6 6 5 4 5 5 3 2 2 1 1 1 1 1 1 0 0 1 1 1 1 1 1 2 1 2 3 3 3 2 3 3 3 3 3 3 3 5 6 7 7
4 2 4 4 5 5 4 4 3 2 2 2 2 1 1 1 0 1 2 2 1 1 1 0 0 1 2 1 1 2 2 2 2 2 3 3 3 3 3 3 3 3 4 6
4 4 5 5 4 5 4 2 2 2 2 1 1 2 2 1 1 2 2 1 0 0 0 1 1 2 2 1 1 1 1 1 1 1 2 2 3 3 3 4 4 3 2 3
5 4 4 3 4 4 3 2 2 3 2 2 1 1 1 1 1 2 2 1 0 1 2 1 2 3 2 1 1 1 2 2 1 1 2 2 2 3 3 3 3 3 3 3
3 4 4 4 4 4 3 2 3 3 3 2 3 2 1 1 0 2 2 2 1 2 2 2 3 3 2 2 2 2 2 2 2 1 2 2 2 3 3 3 3 3 4 3
5 6 5 4 4 4 3 2 2 2 3 3 2 1 1 1 2 2 2 2 2 3 3 3 3 2 2 2 2 2 2 1 1 2 2 2 3 3 3 3 3 4 3 3
2 3 3 3 3 3 2 2 2 2 2 1 1 1 1 2 2 2 1 1 1 3 4 3 3 2 2 2 1 1 2 2 2 2 2 2 2 2 2 3 3 3 3 2
1 1 1 2 1 1 2 2 2 2 2 1 1 1 1 2 1 1 1 2 3 3 3 3 2 2 2 2 1 1 2 2 2 2 2 2 2 2 2 3 3 3 2 2
1 1 1 1 2 2 2 2 1 1 1 0 1 2 2 2 1 1 1 2 4 3 2 3 2 2 2 2 1 1 2 2 2 2 2 2 2 2 2 2 2 2 2 2
1 1 2 2 1 2 3 2 1 1 1 1 1 1 1 1 1 1 2 3 3 3 2 2 2 3 3 2 1 1 2 2 2 2 2 2 2 2 2 2 2 2 2 2
2 2 2 2 2 2 3 2 2 1 2 2 1 2 2 2 1 1 2 3 2 2 2 2 3 4 4 2 1 1 2 2 2 2 2 2 2 2 2 2 2 2 2 1
2 2 2 2 1 1 2 3 2 2 2 1 2 2 2 1 2 2 2 3 3 2 1 2 3 3 2 1 1 1 1 1 1 1 2 2 2 2 2 2 2 1 1 1
2 2 1 1 1 2 3 2 1 2 1 1 2 2 1 1 1 2 1 2 2 2 2 2 2 2 1 1 1 1 1 1 1 2 2 1 2 2 1 1 1 1 1 1
2 2 2 2 2 2 2 1 1 1 1 1 2 2 2 1 1 1 1 2 2 2 2 2 2 1 1 1 1 1 1 1 2 1 1 1 1 1 1 1 1 1 1 1
1 1 1 2 2 1 1 1 1 2 2 1 2 2 2 1 1 1 1 1 1 1 1 2 2 2 1 1 1 1 1 1 1 1 1 1 1 0 1 1 1 1 1 1
Wind_Direction
231 249 211 223 228 197 195 187 185 218 220 243 241 237 239 202 152 146 159 169 176 185 192 194 191 189 187 190 186 178 178 188 199 197 191 186 185 188 186 191 203 210 211 226
293 298 212 251 270 218 221 215 209 210 247 259 275 83 78 146 150 158 177 186 186 187 189 196 194 191 188 188 186 176 183 197 196 186 184 188 191 189 189 200 210 211 220 224
249 296 13 270 244 204 191 208 182 207 236 250 233 198 191 177 168 179 189 194 193 194 196 198 197 188 188 189 177 178 188 194 189 188 193 197 196 190 202 213 214 221 230 227
170 116 215 238 275 149 151 247 241 230 240 214 215 225 191 162 175 190 196 195 204 202 197 195 185 180 172 161 165 174 182 189 191 191 198 198 195 201 208 209 212 223 230 232
138 177 256 283 277 167 169 278 295 237 264 268 113 63 0 328 235 216 216 212 207 203 195 182 176 170 156 159 164 171 184 193 197 193 191 192 202 209 208 205 214 224 231 234
139 163 217 243 282 285 128 267 301 15 253 278 86 98 269 292 287 274 275 241 216 188 154 168 181 157 155 166 171 189 198 198 194 192 193 195 202 205 204 203 218 224 243 245
165 198 252 271 298 38 161 239 270 231 231 203 194 212 238 263 276 277 311 356 74 145 153 182 171 155 165 177 197 206 195 184 179 186 195 194 190 195 196 205 213 226 242 254
150 179 244 309 12 153 221 271 267 249 234 217 235 258 289 304 320 4 33 60 119 130 160 173 163 158 170 196 208 189 175 181 178 180 193 187 184 192 187 189 209 234 248 263
186 213 254 303 261 266 225 239 263 263 285 182 168 245 264 318 334 336 354 109 148 143 136 173 164 165 181 203 174 159 160 178 190 187 206 201 190 192 193 192 203 226 248 264
262 277 293 313 320 324 320 282 279 268 260 192 187 201 189 132 359 350 351 331 123 119 124 223 201 186 193 180 161 161 171 177 188 196 206 210 209 197 201 205 213 222 239 256
258 279 317 327 327 322 327 330 327 313 271 192 175 203 193 190 294 317 336 330 120 146 171 234 244 197 191 171 161 173 181 181 185 198 209 213 223 217 213 215 212 219 229 234
226 234 227 269 288 300 313 313 305 301 306 299 196 205 195 215 242 263 291 344 102 142 163 220 321 307 267 197 168 173 195 205 196 191 211 215 221 250 245 239 236 231 237 235
227 235 231 258 281 288 287 294 295 283 263 271 276 207 186 218 239 237 272 243 211 220 215 194 190 244 256 226 175 184 201 210 207 196 203 214 218 224 255 272 257 246 246 246
238 242 270 271 273 288 294 300 305 306 283 240 222 199 174 175 237 251 260 256 237 240 265 249 221 290 277 214 177 203 212 217 221 210 205 215 228 234 236 244 261 269 254 252
255 234 248 274 288 297 301 318 320 301 285 265 216 181 165 173 225 256 265 265 180 131 312 320 308 296 303 251 192 211 213 222 229 232 223 222 225 230 238 245 252 263 272 272
271 273 262 268 277 291 304 309 292 286 289 276 259 224 193 196 262 281 285 278 194 271 281 272 268 273 267 239 210 209 223 227 228 235 240 243 240 238 241 243 249 256 262 264
248 257 257 265 269 273 271 270 265 275 282 276 259 244 200 167 278 303 315 324 305 285 280 269 270 274 256 227 210 214 214 213 217 232 234 236 243 245 246 247 249 255 259 254
232 240 240 237 245 255 265 264 260 260 258 260 268 259 244 215 215 255 288 319 335 322 306 286 271 261 254 241 212 211 213 210 214 232 235 227 233 243 245 247 251 257 272 270
258 252 262 263 251 243 255 266 259 252 256 264 275 264 251 236 220 232 266 295 298 296 297 299 281 262 262 264 249 201 199 205 227 240 243 231 224 235 244 251 257 262 265 268
310 313 295 284 282 261 260 263 261 258 252 223 247 263 259 266 262 264 282 277 263 260 277 303 293 274 266 268 269 222 211 213 224 235 237 237 233 239 247 256 264 270 272 265
304 325 314 307 318 314 295 280 263 272 280 266 232 239 245 261 259 242 286 299 299 298 302 305 300 292 280 275 266 245 234 226 227 234 236 238 239 242 246 254 262 264 264 263
296 309 304 298 296 303 303 294 269 261 275 268 264 268 273 278 276 272 259 256 276 304 310 302 299 295 295 290 256 246 246 239 232 230 236 240 239 247 258 264 266 268 264 263
278 276 283 283 275 284 306 308 292 272 267 271 255 248 257 265 258 239 277 284 285 307 310 303 314 317 313 304 275 253 254 253 246 242 246 250 251 252 260 264 264 263 265 266
274 278 274 277 277 289 295 295 300 297 285 272 267 257 249 277 305 279 257 292 311 307 301 309 321 326 326 325 313 288 272 271 264 251 253 260 265 264 261 260 264 269 269 274
263 272 282 286 274 261 260 275 304 310 313 319 312 304 292 240 240 280 297 310 329 335 319 322 328 328 329 327 313 282 269 265 257 250 251 253 257 263 264 259 252 259 261 264
265 267 268 257 247 252 256 244 242 276 284 299 310 311 317 322 302 289 301 313 327 333 329 326 334 350 358 342 309 290 281 285 283 275 271 266 265 266 276 288 295 290 288 284
308 296 298 304 295 261 238 226 231 256 252 242 276 302 308 314 315 316 315 321 335 335 337 348 358 6 1 349 332 326 325 329 326 321 324 337 358 340 326 318 321 318 307 300